Terminal Aerodrome Forecast
Issued by NWS Miami, FL

Home | Current Version | Previous Version | Text Only | Print | Product List | Glossary On
Versions: 1 2 3 4 5 6 7 8 9 10 11 12 13 14 15 16 17 18 19 20 21 22 23 24 25 26 27 28 29 30 31 32 33 34 35 36 37 38 39 40 41 42 43 44 45 46 47 48 49 50
000
FTUS42 KMFL 231915 AAA
TAFFLL
TAF AMD
KFLL 231915Z 2319/2418 35008KT 6SM -SHRA FEW030 BKN070 OVC090
     FM232300 VRB05KT P6SM VCSH FEW015 SCT030 BKN120
     FM240600 30005KT P6SM FEW010 SCT025
     FM241400 29011KT P6SM SCT050=

USA.gov is the U.S. government's official web portal to all federal, state and local government web resources and services.